Dewpoint
42 40 40 39 38 36 35 35 35 35 34 34 34 33 33 33 33 32 38 37 35 34 34 40 45 49 46 46 44 45 46 48 52 56 60 61 63 64 65 65 64 64 63
45 43 42 41 40 38 37 36 36 36 36 35 33 33 32 33 33 33 32 37 37 35 34 34 40 46 48 50 50 45 45 47 50 53 58 60 61 64 65 65 64 63 63
45 44 43 42 41 39 39 37 36 36 36 35 33 32 31 32 33 33 33 33 34 38 36 35 35 40 45 48 48 50 45 46 48 52 55 58 60 63 64 64 64 63 63
45 44 43 42 41 41 38 37 38 36 35 34 33 32 31 32 32 32 32 32 31 33 38 36 35 35 40 44 47 49 49 46 47 51 53 57 60 62 64 64 64 63 63
42 42 41 41 41 39 38 38 37 36 34 34 33 32 33 31 31 29 31 32 32 30 32 38 38 36 37 40 43 48 50 48 47 48 52 55 59 61 64 64 64 63 63
40 40 40 40 40 37 37 38 37 37 35 34 32 30 33 33 31 31 30 30 30 32 33 33 39 38 37 39 41 46 49 49 48 48 51 54 59 61 64 64 64 63 62
40 40 40 38 37 36 37 37 39 37 35 35 33 32 32 32 33 31 30 31 30 31 31 34 35 37 39 39 39 41 47 48 50 48 50 53 58 61 64 64 64 63 62
41 40 38 37 36 35 36 38 36 36 36 36 33 32 29 29 32 33 32 32 32 30 32 33 35 35 37 40 39 38 43 46 48 48 49 54 58 60 63 64 63 63 62
35 38 37 37 36 37 35 35 37 36 35 34 34 31 28 27 30 33 33 30 31 33 35 37 35 35 35 39 41 40 43 45 47 48 49 57 58 60 61 63 63 62 61
34 34 35 36 37 36 35 35 35 35 35 33 33 32 33 33 34 32 31 31 31 34 36 37 36 35 35 36 41 40 43 46 45 47 48 53 58 59 61 63 63 62 61
35 35 35 34 36 37 36 35 35 35 35 33 32 32 31 32 32 32 32 31 32 34 35 36 38 36 35 37 38 43 44 45 42 42 45 48 53 56 59 63 63 62 61
30 31 33 35 36 36 36 35 35 35 34 34 32 31 31 32 31 31 30 30 30 32 33 35 37 38 37 37 39 43 44 42 40 40 43 46 49 54 57 63 62 62 61
27 28 31 32 32 35 36 35 35 34 35 34 33 33 33 33 34 33 32 31 29 32 32 33 37 37 37 38 40 44 42 40 40 43 46 47 48 52 55 63 62 61 60
34 35 35 35 34 36 37 37 34 35 34 35 34 34 34 34 35 35 33 32 30 29 30 33 36 37 38 39 43 41 40 39 39 44 46 46 46 49 54 62 62 61 61
34 34 34 35 35 34 36 37 38 36 35 35 35 35 34 35 36 36 34 33 33 29 26 31 34 37 40 42 39 39 40 38 40 44 45 45 46 49 54 61 61 60 60
35 33 32 32 32 33 34 35 36 37 37 38 38 36 35 36 37 37 36 33 33 32 31 34 35 36 37 41 39 42 40 42 41 43 47 48 48 51 55 60 59 59 59
34 34 33 32 32 32 32 33 33 34 35 35 35 38 37 37 37 37 36 34 32 33 32 33 37 38 37 40 40 40 46 45 44 46 48 49 49 52 56 57 58 58 58
34 35 35 34 33 33 33 32 31 32 32 33 34 33 36 38 37 38 37 34 32 32 33 33 37 37 37 40 40 40 45 41 48 47 48 50 51 54 57 58 57 57 57
36 36 36 35 34 34 33 33 32 32 32 32 33 33 33 37 36 36 37 35 33 32 33 34 35 36 36 40 41 40 43 50 52 50 49 51 52 54 55 55 56 57 56
35 35 35 34 34 34 34 33 33 33 32 33 33 33 33 34 33 35 36 35 34 32 32 35 34 34 37 38 41 41 44 50 51 53 52 52 52 54 55 55 56 55 55
34 34 35 34 34 33 33 33 33 32 32 31 31 32 34 35 34 34 38 35 33 32 32 34 34 34 37 37 38 41 46 48 52 53 51 52 53 55 52 54 54 54 53
33 32 33 33 32 33 33 33 33 32 32 31 31 33 34 34 35 33 37 36 34 32 33 35 34 35 35 38 39 42 47 48 49 54 53 53 55 54 55 56 53 52 52
32 32 32 32 32 32 33 33 32 32 32 31 32 32 33 35 36 35 35 35 32 31 32 36 36 37 37 38 40 50 48 50 49 50 48 44 46 44 48 49 50 50 49
31 32 32 32 31 32 32 33 33 32 32 32 31 33 31 33 35 36 36 34 32 31 33 36 40 41 44 42 48 49 50 49 49 49 48 40 41 39 41 43 46 47 47
32 32 32 32 31 32 33 32 32 31 31 31 31 34 34 33 34 35 36 32 31 32 34 38 39 43 44 49 51 50 49 48 46 45 45 41 39 37 37 37 40 42 44
31 30 32 33 33 32 33 32 31 31 30 31 33 34 35 34 35 34 33 31 31 33 34 37 40 45 50 50 50 51 50 47 45 44 45 41 39 40 36 36 37 40 40
Wind_Speed
4 3 4 3 5 6 6 4 6 6 1 5 7 6 6 6 6 5 3 7 5 4 5 7 7 6 5 3 1 2 2 3 3 6 7 8 9 14 19 19 19 18 17
6 6 6 6 7 7 6 4 5 4 8 9 7 7 7 6 8 5 6 2 8 7 7 9 9 8 6 4 6 2 1 1 1 4 4 5 9 4 20 20 19 19 18
6 7 8 9 9 8 6 5 6 8 9 11 11 10 8 9 8 9 8 7 6 12 10 8 10 10 9 8 5 6 3 2 2 1 3 3 5 2 20 20 20 19 18
11 9 9 10 10 9 8 8 8 9 10 10 9 7 6 7 9 8 5 8 9 6 12 12 10 11 11 10 8 6 6 5 4 4 1 1 2 1 19 21 20 19 19
10 10 8 9 10 10 10 10 10 9 10 9 10 10 9 9 9 8 10 11 9 7 7 11 12 11 13 12 11 9 7 6 6 6 5 2 2 4 19 22 21 20 20
8 7 8 11 11 11 12 11 12 11 10 11 10 11 8 7 9 9 10 9 10 10 10 9 12 10 13 14 13 11 8 6 8 7 9 4 4 2 18 23 23 22 21
7 9 10 9 11 12 13 13 10 13 12 9 10 11 13 14 13 12 11 10 10 10 11 10 9 11 13 17 15 14 12 10 9 9 9 7 4 5 16 24 24 23 22
15 12 11 12 12 12 12 14 15 13 10 12 13 11 12 12 16 17 14 12 11 8 10 12 11 12 8 13 15 16 14 11 10 10 10 9 6 4 9 26 25 22 22
9 10 14 14 13 11 12 13 12 16 15 13 11 9 4 7 10 10 12 7 11 10 8 8 14 10 10 9 16 17 16 11 5 8 8 9 7 3 6 28 27 25 24
13 12 12 12 13 13 14 14 14 13 14 15 11 13 11 5 2 2 9 12 9 6 10 8 11 11 10 10 7 17 18 12 7 5 3 3 5 5 6 29 28 26 25
14 14 15 17 16 15 16 16 14 13 15 14 14 11 11 14 13 6 6 8 11 10 13 10 9 12 11 10 10 10 20 16 9 6 6 5 4 4 10 29 28 26 25
14 13 13 14 15 18 19 18 17 17 16 14 14 13 14 11 14 10 11 10 9 11 10 8 10 7 10 11 11 12 19 18 13 8 8 9 9 8 11 32 30 29 27
12 14 15 14 14 12 16 18 18 19 17 16 15 13 13 13 10 8 10 8 8 3 3 4 7 9 10 12 10 13 15 14 12 10 10 10 11 10 12 34 32 31 29
12 17 17 16 15 15 17 14 18 18 19 17 19 16 13 9 11 8 5 4 9 10 3 5 8 10 10 14 11 19 16 15 13 11 10 11 12 12 9 35 31 31 30
17 22 20 21 19 19 15 14 12 13 14 17 18 17 15 9 10 8 8 5 7 7 9 7 5 6 5 11 11 11 11 16 15 13 12 13 13 11 11 32 31 31 30
14 14 15 15 14 14 14 12 7 5 6 4 3 10 13 11 12 8 8 8 10 10 10 0 10 12 8 9 13 8 10 12 17 16 14 13 14 11 9 33 31 30 28
14 16 15 15 14 13 12 10 11 8 8 6 3 3 11 11 13 10 7 9 12 9 13 12 5 12 5 1 9 7 8 13 16 17 16 15 16 13 26 32 32 29 28
15 15 14 15 14 12 13 13 13 12 14 15 13 14 10 16 14 12 12 13 14 10 12 6 2 5 4 3 9 8 9 11 11 14 16 16 16 30 35 38 32 29 30
15 14 14 15 15 14 15 14 14 14 15 19 18 18 15 15 18 12 14 14 12 11 12 10 6 3 8 7 9 9 8 8 8 4 11 18 28 34 36 34 34 32 28
11 12 11 12 12 14 15 15 15 15 15 12 18 15 21 16 13 14 16 16 13 11 11 10 4 5 6 5 4 7 4 5 5 4 9 19 29 36 38 36 35 32 30
12 12 10 10 10 11 12 16 14 15 14 15 15 15 17 18 18 17 17 17 14 11 11 7 5 6 8 4 7 8 6 7 4 5 15 15 22 24 23 26 30 29 30
10 11 12 11 8 7 11 17 12 14 15 14 13 16 17 24 20 22 19 16 13 15 11 6 7 8 9 9 12 9 11 10 5 8 14 16 17 17 17 19 23 30 27
13 14 13 12 11 8 10 13 13 11 15 14 14 15 14 14 19 17 13 14 9 8 3 5 5 8 9 12 11 9 11 5 6 12 25 18 13 18 12 20 29 29 27
14 14 15 16 14 11 13 15 17 13 13 13 14 15 16 17 14 16 19 14 10 10 3 5 5 12 9 5 5 8 12 14 15 12 20 11 10 17 16 19 20 29 31
13 12 13 12 13 13 13 14 14 13 12 11 13 11 15 18 22 21 17 15 12 7 2 3 8 10 4 11 13 16 16 21 13 5 8 11 3 17 16 19 17 21 29
13 14 13 12 15 11 10 10 13 12 13 9 16 15 16 20 26 23 15 13 14 9 7 8 8 7 13 10 7 7 14 19 14 11 1 10 9 9 9 9 14 14 20
Wind_Direction
312 279 274 305 312 315 303 247 258 272 298 277 243 235 276 279 283 292 158 168 163 178 237 259 275 302 289 302 290 345 350 0 24 54 48 38 29 168 153 145 143 139 136
294 305 295 263 243 238 254 255 292 330 337 325 314 259 242 266 295 298 304 205 206 201 221 234 247 260 282 324 347 284 298 327 357 58 61 45 28 188 153 150 145 143 139
234 247 271 273 276 276 253 243 257 269 244 249 253 245 236 250 234 251 249 263 249 218 218 226 235 241 251 269 286 328 261 251 236 176 75 52 29 34 154 152 149 145 140
206 227 255 266 271 259 253 249 230 237 249 252 255 263 278 258 233 228 235 252 271 261 207 220 225 230 239 249 261 275 289 241 226 208 166 96 25 16 158 154 151 146 141
212 215 235 266 285 285 258 246 248 234 256 267 280 273 236 240 269 266 235 226 230 256 267 223 215 222 229 235 242 255 282 267 230 218 206 142 196 352 167 157 152 148 144
238 220 228 243 247 258 270 259 238 238 235 253 265 276 304 271 226 241 256 249 239 230 226 247 198 216 226 228 233 241 254 254 238 223 209 209 195 262 175 159 153 150 144
235 240 237 246 254 249 249 257 256 235 242 249 264 275 266 265 256 238 251 264 257 236 212 215 236 223 208 215 223 227 234 246 250 214 209 207 202 216 177 157 154 152 147
252 237 237 238 248 262 264 239 237 255 247 223 234 249 271 272 237 221 213 228 242 245 227 200 220 237 221 197 211 221 223 233 244 214 203 197 200 221 189 160 151 152 148
274 235 226 223 227 242 257 259 244 226 236 249 242 213 247 255 305 185 180 209 241 213 257 242 198 236 248 216 200 200 209 229 286 216 209 183 191 252 245 160 154 155 150
292 281 265 244 226 225 233 247 253 249 230 230 239 234 210 229 332 313 182 201 254 199 254 243 199 202 232 240 211 189 195 201 220 223 184 349 197 266 258 161 158 154 150
294 280 263 247 234 223 223 230 247 246 235 234 224 232 233 204 232 241 296 187 202 216 229 213 265 187 217 218 239 171 189 196 203 215 240 268 273 307 295 159 155 149 149
272 282 274 262 244 225 220 216 222 232 244 234 224 234 226 217 205 214 244 282 277 213 202 197 220 197 204 212 225 180 171 183 191 210 238 249 253 261 273 156 154 152 150
303 306 321 325 317 298 225 212 213 218 224 225 227 225 233 232 199 203 215 256 279 150 160 226 216 211 215 193 206 158 169 173 185 205 219 230 233 246 280 157 159 156 155
0 340 333 329 326 337 343 324 216 210 212 213 216 219 226 223 190 190 181 228 278 271 227 172 206 214 222 189 188 166 174 185 193 205 215 223 225 232 284 157 158 157 156
321 312 307 287 286 296 309 326 331 253 213 203 209 212 211 198 173 182 188 203 265 272 254 194 176 209 212 138 145 180 173 199 200 205 215 220 217 232 241 154 155 154 154
289 277 274 274 272 259 249 266 276 329 238 98 113 208 220 181 162 184 191 200 252 273 294 250 195 168 229 154 167 193 204 221 201 209 207 210 210 216 207 152 151 147 149
273 267 264 264 260 248 237 224 223 224 227 174 196 223 222 200 164 173 198 205 242 264 282 315 149 153 197 0 161 207 178 187 203 205 202 205 199 197 149 133 135 144 146
283 271 258 253 250 237 237 224 229 224 221 213 194 208 232 186 164 173 197 210 233 252 286 298 79 107 165 188 167 213 239 218 169 198 205 202 179 150 140 135 140 145 146
291 292 280 262 248 235 220 221 214 217 224 220 216 208 202 194 172 180 201 202 221 239 269 274 195 156 216 254 171 222 253 101 105 135 181 175 156 144 141 143 143 147 150
316 303 297 288 262 228 212 211 205 203 198 192 192 183 185 200 186 174 215 192 206 222 261 266 210 184 248 190 184 221 200 94 81 69 134 163 154 148 145 149 148 150 152
332 324 321 295 270 244 212 194 197 189 187 185 199 189 181 180 197 184 205 182 196 200 239 227 225 219 202 194 223 229 172 136 122 132 123 139 144 140 142 140 145 149 149
0 358 349 342 324 249 209 178 173 178 173 175 171 168 180 193 190 189 181 180 190 192 218 205 219 235 206 196 219 234 149 170 121 137 117 119 129 130 142 147 141 145 140
18 12 14 16 31 55 133 151 152 148 147 163 162 171 167 166 177 174 171 197 162 175 237 242 248 283 238 202 225 150 146 159 102 109 104 74 72 72 73 123 132 128 133
29 30 30 38 47 76 105 124 119 122 129 146 165 154 169 164 158 159 174 193 190 205 274 333 318 297 284 204 162 130 122 104 90 87 112 95 65 72 66 64 103 130 126
34 37 46 50 55 74 94 117 119 119 127 127 155 152 156 160 167 157 163 175 179 199 117 286 275 291 141 102 131 122 141 129 112 79 74 106 113 85 64 51 48 98 114
36 49 52 52 70 64 66 88 105 115 109 118 135 142 137 156 148 155 161 170 173 182 215 219 243 260 76 79 71 148 145 136 124 101 142 107 132 119 80 25 40 64 87